196 serials | catia v6

Date Name Success Rate
2009-10-17 06:20:07 CADopia Professional V6 SP1 60%
2009-10-17 06:21:18 Dassault Systemes Catia CADAM Drafting V5R14 SP3 57%
2009-10-17 06:21:18 Dassault Systemes Catia CADAM Drafting V5R15 SP2 12%
2009-10-17 06:22:11 EBP Garage V6 R8 French 15%
2009-10-17 06:23:39 GFI DownloadSecurity For ISA Server V6 19%
2009-10-17 06:33:20 The Britannica Concise Encyclopedia For Babylon V6 0%
2009-10-17 06:33:20 The Merriam-Websters Collegiate Dictionary And Thesaurus For Babylon V6 57%
2009-10-17 06:33:27 ThinPath PC Xware V6 0%
2009-10-17 06:35:38 Wahrig German Dictionary For Babylon V6 0%
2009-10-22 23:27:10 Accessory Software Data Quik V6 0%
2009-10-22 23:27:13 Adobe Acrobat V6 0%
2009-10-22 23:27:13 Adobe Acrobat V6.x Prof. Retail 0%
2009-10-22 23:27:14 Adobe Photoshop Elements V6 0%
2009-10-22 23:27:26 AV Voice Changer Diamond V6.XXX 40%
2009-10-22 23:45:48 CADopia Professional V6 SP1-rG 0%
2009-10-22 23:45:50 CDMenuPro V6 0%
2009-10-22 23:45:53 Cold Fussion MX V6 0%
2009-10-22 23:45:56 Corel PrintHouse V6 0%
2009-10-22 23:45:57 Cyberlink Power Cinema V6 (all Version) 0%
2009-10-22 23:45:57 Cyberlink Power Direktor V6 51%
2009-10-22 23:46:25 Dassault Systemes Catia CADAM Drafting 0%
2009-10-22 23:46:25 Defrag V6 0%
2009-10-22 23:47:41 Effective Site Studio Profesional V6 0%
2009-10-22 23:47:42 EUDORA V6 PRO 0%
2009-10-22 23:47:59 GARMIN MAP SOURCE City Navigator Europe V6 0%
2009-10-22 23:48:00 Geometric GeomCaliper For CATIA V5.R2.3 70%
2009-10-22 23:48:00 Geometric GeomCaliper For CATIA V5.R2.3.HAPPY 9TH BDAY AND 12000 0%
2009-10-22 23:48:29 Kaspersky Anti Virus V6 300key 67%
2009-10-22 23:49:11 O&O Defrag V6 Professional Edition 0%
2009-10-22 23:49:13 Outpost Firewall Pro 2008 V6 (Punkcracks) 0%
2009-10-22 23:49:19 P0werDVD V6 CLJ Deluxe 0%
2009-10-22 23:49:21 Perfect Uninstaller V6.xx Serial (4narchy) 70%
2009-10-22 23:49:22 PhpDesigner 2008 V6 0%
2009-10-22 23:49:25 Power2Go V6 0%
2009-10-22 23:49:43 Restore It V6 0%
2009-10-22 23:49:55 Softboy Net Exe Icons Changer V6 0%
2009-10-22 23:49:56 Sonic Foundary Sound Forge V6.x 53%
2009-10-22 23:49:56 Sonic Foundry Sound Forge V6.x 0%
2009-10-22 23:49:57 SoundTrek Jammer V6 0%
2009-10-22 23:50:10 Throttle V6.*.**.2006 0%
2009-10-22 23:50:13 Triple Red Line V6 0%
2009-10-22 23:50:18 UHS Reader V5 & V6 0%
2009-10-22 23:50:19 UltraISO V6.X 0%
2009-10-22 23:50:27 Virtual CD V6 0%
2009-10-22 23:50:27 Virtualcd V6 0%
2009-10-22 23:50:28 VMware Workstation V6 Windows 70%
2009-10-22 23:50:37 WinDVD V6 0%
2009-10-22 23:50:45 Xara 3d V6 89%
2009-10-22 23:50:45 XD++ Library For Visual.Studio V6 5.07 0%
2009-10-22 23:50:45 XD++ Library For Visual.Studio V6 V5.07 0%
2009-10-22 23:50:58 ZoneAlarm Security Suite V6 0%
2009-10-22 23:50:58 ZoneLabs ZoneAlarm IMSecure V6.x 0%
2009-10-22 23:50:58 ZoneLabs ZoneAlarm Pro V6.X 0%
2009-10-22 23:50:58 ZoneLabs ZoneAlarm Security Suite V6.X 0%
2009-10-22 23:50:58 ZoneLabs ZoneAlarm Wireless Security V6.x 0%
2009-10-22 23:50:58 ZoneLabs ZoneAlarm With Antivirus V6.X 0%
2011-09-08 09:58:06 ACDSee v6 PowerPack 0%
2011-09-08 09:58:10 Ace Contact Manager v6 Build 6.1.55 0%
2011-09-08 09:58:10 Ace Contact Manager v6 Build 6.1.57 0%
2011-09-08 09:59:49 Ad-aware professional v6 build 181 0%
2011-09-08 10:00:22 Adobe Acrobat v6 0%
2011-09-08 10:00:22 Adobe Acrobat v6.x 0%
2011-09-08 10:00:22 Adobe Acrobat v6.x MAC 0%
2011-09-08 10:00:22 Adobe Acrobat v6.x Prof. Retail 0%
2011-09-08 10:00:22 Adobe Acrobat v6.x Professional Retail 0%
2011-09-08 10:00:22 Adobe Acrobat v6.x Professional Upgrade 0%
2011-09-08 10:02:13 Agenda Fusion v6.x 0%
2011-09-08 10:02:13 Agenda Fusion v6.xx - v7.xx PocketPC 0%
2011-09-08 10:02:13 Agenda Fusion v6.xx v7.xx 0%
2011-09-08 10:07:13 Antivirus Czech Republic v6.x 0%
2011-09-08 10:13:03 AVG v6.xxx 70%
2011-09-08 10:18:29 Backup Exec for Windows NT v6.x 0%
2011-09-08 10:20:24 BlasterMaster v6.x 0%
2011-09-08 10:24:16 CATIA Module for Deep Exploration v3.5.7.484 0%
2011-09-08 10:25:53 Cherry Bandit v6.x 0%
2011-09-08 10:26:17 City Select Europe V6 0%
2011-09-08 10:27:43 Cold Fussion MX v6 0%
2011-09-08 10:31:37 Corel PrintHouse v6 0%
2011-09-08 10:33:02 Customizer 2000 v6.x 0%
2011-09-08 10:44:53 Dreamweaver MX v6.X Unlimited 0%
2011-09-08 10:48:40 EBP Garage v6 R8 French 0%
2011-09-08 11:03:30 Graphics WorkShop v6.x and v7.x 0%
2011-09-08 11:03:30 Graphics Workshop v6.x andv7.x 2 0%
2011-09-08 11:06:54 HiDownload v6.x 0%
2011-09-08 11:14:13 ILLUSTRATE V5.3 FOR 3DSMAX V6 0%
2011-09-08 11:15:40 Installer VISE v6.x 0%
2011-09-08 11:15:45 InstallShield Professional 2000 West Language Pack v6 2 0%
2011-09-08 11:15:45 InstallShield Professional v6 3 0%
2011-09-08 11:15:45 Installshield V6. 0%
2011-09-08 11:16:48 Intervideo Windvd v6.x 0%
2011-09-08 11:16:56 IOLO System Machanic v6 Pro 0%
2011-09-08 11:25:55 Life Explosion Millennium Edition v6 5 0%
2011-09-08 11:27:02 LoanShark v6 1 0%
2011-09-08 11:27:13 Lohn Gehalt KHLohn 2001 v6 0 0%
2011-09-08 11:28:01 Macromedia ColdFusion MX Server Enterprise v6 0 0%
2011-09-08 11:29:50 Matlab Complete (Addons) v6 0 0%
2011-09-08 11:29:50 Matlab Matlab v6. 0%
2011-09-08 11:30:03 MDaemon Pro v6.x 0%
2011-09-08 11:30:08 Mechanical Desktop v6 0 0%
2011-09-08 11:30:16 Media Studio v6 5 0%
2011-09-08 11:30:36 MegaSafe v6 0 0%
2011-09-08 11:32:07 Microtek ScanMaker 8700AIMicrotek ScanMaker 8700Microtek ScanMaker 8700AI v6 0 0%
2011-09-08 11:32:20 Midisoft Worship Studio 2002 v6 0 0%
2011-09-08 11:32:35 MinderTech MJ v6 1 0%
2011-09-08 11:32:46 MiniCAD v6 0 0%
2011-09-08 11:33:01 mIRC v6 xx 49%
2011-09-08 11:35:07 Multiactive ecBuilder Developer Edition v6 1 0%
2011-09-08 11:40:04 Ahead Nero Burning Rom v6.xx Unlimited 0%
2011-09-08 11:40:50 Nero Burning Rom Ultra Edition v6.x 0%
2011-09-08 11:40:50 Nero Burning Rom Ultra Edition v6.x beta 0%
2011-09-08 11:40:50 Nero Burning Rom Ultra Edition v6.xx unlimited 0%
2011-09-08 11:40:58 Nero Burning ROM v6 X 0%
2011-09-08 11:40:58 Nero Burning ROM v6 x Enterprise Edition 0%
2011-09-08 11:40:58 Nero Burning ROM v6.3 v6 3 0%
2011-09-08 11:41:04 NERO BURNING ROM v6.xxx 0%
2011-09-08 11:41:04 Nero DVD Video Plug in v6 3 0%
2011-09-08 11:41:04 Nero DVD-Video Plugin v6 3 0%
2011-09-08 11:41:08 Nero MP3 PowerPack v6 3 0%
2011-09-08 11:41:08 Nero Multi-channel Plug in v6 3 0%
2011-09-08 11:41:08 Nero Multichannel Plugin v6 3 0%
2011-09-08 11:41:14 Nero Suite v6 0 0%
2011-09-08 11:41:53 NetOp v6 5 0%
2011-09-08 12:25:11 Multiactive ecBuilder Developer Edition v6 1 0%
2011-09-08 12:25:19 Multimedia Datenbank v6 x 0%
2011-09-08 12:25:28 MusicMatch Jukebox Plus v6 xx-7 xx 0%
2011-09-08 12:25:42 My Labels Premium v6 0 100%
2011-09-08 12:25:44 My Personal Diary32 v6 0%
2011-09-08 12:26:12 O & O defrag Serv v6 0%
2011-09-08 12:26:12 O & O Defrag v6 prof 0%
2011-09-08 12:26:12 O & O Defrag V6 Professional v6.0.710 0%
2011-09-08 12:26:14 O&O Defrag v6 Pro Edition 0%
2011-09-08 12:26:14 O&O Defrag v6 Professional Edition 0%
2011-09-08 12:26:14 O&O Defrag V6 Professional v6.0.710 0%
2011-09-08 12:26:14 O&O Defrag V6 Professional v6.0.710 Keygen 0%
2011-09-08 12:26:14 O&O Defrag v6 Server Edition 0%
2011-09-08 12:27:05 Opera v6 Final 0%
2011-09-08 12:27:05 Opera v6 xx 0%
2011-09-08 12:27:22 Oulook Express Backup v6 5 0%
2011-09-08 12:28:05 Paper direct templ. v5.0 for MSWord v6 0%
2011-09-08 12:28:24 PartitionMagic Professional v6 0 0%
2011-09-08 12:28:24 PartitionMagic v6 0 0%
2011-09-08 12:28:32 Passware Password Recovery Kit Enterprise Edition v6 5 0%
2011-09-08 12:28:40 Password Recovery Kit Enterprise v6 1 53%
2011-09-08 12:29:11 PC-Cillin v6.xx 0%
2011-09-08 12:30:36 Photo Impact v6 0 0%
2011-09-08 12:35:37 Power DVD v6 0 0%
2011-09-08 12:35:55 PowerDVD v6 x 0%
2011-09-08 12:36:31 Pretty Good Solitaire 2000 German - English v6 x 0%
2011-09-08 12:37:06 QuarkXPress v6 1 0%
2011-09-08 12:37:40 Quicktime Pro v6 0%
2011-09-08 12:37:42 Quicktime v6 0%
2011-09-08 12:37:44 QuikTime Pro v6 x 0%
2011-09-08 12:38:22 Pro Tools v6 7 0%
2011-09-08 12:38:48 Proteus v6 2 51%
2011-09-08 12:39:09 PVCS Manager v6 7 0%
2011-09-08 12:44:06 Roxio Easy CD Creator v6.x 0%
2011-09-08 12:46:49 SequBeat Pro v6 7 0%
2011-09-08 12:47:40 Silk v6 0 0%
2011-09-08 12:47:43 SilverFast SE v6 2 80%
2011-09-08 12:48:12 SKETCHUP pro V6 0%
2011-09-08 12:49:00 SmartDraw Pro Plus v6 0 0%
2011-09-08 12:50:11 Sonic Foundry Sound Forge v6.x 0%
2011-09-08 12:50:11 Sonic Foundry Sound Forge v6.xx 0%
2011-09-08 12:50:14 Sonic MyDVD v6 0 20%
2011-09-08 12:50:20 Sound Forge v v6.x 0%
2011-09-08 12:50:20 Sound Forge v6.x 0%
2011-09-08 12:53:54 Thumbs Plus v6 0%
2011-09-08 12:55:42 Triple Red Line V6 0%
2011-09-08 12:58:35 StatTrak for Volleyball v6 0 0%
2011-09-08 12:59:11 Stuffit Deluxe v6 0 0%
2011-09-08 12:59:36 Super Internet TV v6 1 0%
2011-09-08 13:08:10 UltraISO v6.X 0%
2011-09-08 13:12:08 Virtual CD Network Management Server v6 0%
2011-09-08 13:12:08 Virtual CD v6 0%
2011-09-08 13:12:08 virtual CD v6 6.0.0.3 0%
2011-09-08 13:12:08 Virtual CD v6. 60.0.6 Network Edition 0%
2011-09-08 13:12:14 virtual pc v6 0%
2011-09-08 13:12:16 Virtualcd v6 0%
2011-09-08 13:18:42 WinDVD v6 0%
2011-09-08 13:20:04 Winzip v6.x 0%
2011-09-08 13:20:04 WinZip v6.x for Win95 0%
2011-09-08 13:22:30 XD++ Library For Visual.Studio v6 5.07 0%
2011-09-08 13:22:31 XD++ Library For Visual.Studio v6 v5.07 0%
2012-12-11 23:16:32 Accessory Software Picture Organizer v6 0%
2012-12-12 04:21:41 Blaze HDTV v6 85%
2012-12-12 05:25:20 CDMenu Pro V6 Buissnes Lizens 0%
2012-12-12 06:55:23 Cyberlink DVD Suite V6 45%
2012-12-12 06:58:28 Cyberlink Power2GO V6 0%
2012-12-12 06:59:39 Cyberlink powerdirector v6 20%
2012-12-12 07:35:12 Devolutions Remote Desktop Manager v6. ENT 0%
2012-12-12 15:11:53 ImToo Dvd Creator v6 0%
2012-12-12 15:25:58 ImTOO Video Converter Ultimate V6 0%
2012-12-12 15:25:59 Imtoo Video Converter V6 0%
2012-12-12 17:31:42 LetsFun FLV Converter V5.x & V6.x 60%
2012-12-12 22:33:42 Nitro pdf professional v6 64 bit 0%
2012-12-12 22:33:45 Nitro PDF Professional v6.xxx 11%